Regional Weather Roundup
Issued by NWS

Home | Current Version | Previous Version | Graphics & Text | Print | Product List | Glossary On
Versions: 1 2 3 4 5 6 7 8 9 10 11 12 13 14 15 16 17 18 19 20 21 22 23 24 25 26 27 28 29 30 31 32 33 34 35 36 37 38 39 40 41 42 43 44 45 46 47 48 49 50
000
ASUS43 KMPX 161101
RWRMN
WEATHER ROUNDUP FOR MINNESOTA
NATIONAL WEATHER SERVICE TWIN CITIES/CHANHASSEN MN
500 AM CST TUE JAN 16 2018


NOTE: "FAIR" INDICATES FEW OR NO CLOUDS BELOW 12,000 FEET WITH NO
SIGNIFICANT WEATHER AND/OR OBSTRUCTIONS TO VISIBILITY. N/A MEANS
CURRENT SKY AND/OR WEATHER CONDITIONS ARE NOT AVAILABLE.

MNZ060>063-068>070-161200-
   Twin Cities Metro

CITY           SKY/WX    TMP DP  RH WIND       PRES   REMARKS
TWIN CITIES    CLOUDY     1  -3  83 NW12      30.64S WCI -16
ST PAUL        CLOUDY     1  -4  79 NW14      30.66R WCI -17
CRYSTAL        CLOUDY     0  -7  72 NW8       30.64S WCI -14
BLAINE         CLOUDY     0  -2  92 NW8       30.63S WCI -15
LAKEVILLE      CLOUDY     0  -2  92 NW10      30.63R WCI -17
EDEN PRAIRIE   CLOUDY     0  -4  83 NW8       30.64R WCI -14
SOUTH ST PAUL  CLOUDY     3  -2  79 NW7       30.64R WCI -10
LAKE ELMO      CLOUDY     3   0  85 NW6       30.62S WCI  -8
$$
MNZ001>005-007-008-013>017-022>024-027-028-161200-
   Northwest Minnesota

CITY           SKY/WX    TMP DP  RH WIND       PRES   REMARKS
BEMIDJI        CLOUDY   -12 -15  82 W7        30.67F WCI -27
HALLOCK        FAIR     -17 -22  76 CALM      30.76F
ROSEAU         FAIR     -15 -20  76 CALM      30.72F
WARROAD        FAIR     -17 -22  76 SW3       30.70F
CROOKSTON      FAIR     -15 -20  76 N3        30.80F
FOSSTON        CLOUDY   -17 -20  83 NW3       30.73S
DETROIT LAKES  CLOUDY   -13 -17  84 NW9       30.71S WCI -31
MOORHEAD       FAIR     -13 -20  70 CALM      30.80F
PARK RAPIDS    FAIR     -12 -17  78 NW7       30.65S WCI -27
MAHNOMEN       CLOUDY   -15 -20  78 NW5       30.72F WCI -28
$$
MNZ006-009>011-018-025>026-161200-
   North Central Minnesota

CITY           SKY/WX    TMP DP  RH WIND       PRES   REMARKS
BAUDETTE       FAIR     -17 -21  82 W3        30.67F
FLAG ISLAND    FAIR     -15 -20  76 NW3       30.68F
INTL FALLS     CLOUDY    -4  -7  87 NW6       30.65F WCI -16
WASKISH        CLOUDY   -11 -15  84 NW3       30.69F
BIG FORK       FLURRIES  -4  -8  84 NW3       30.64F
LONGVILLE      CLOUDY    -6  -9  84 NW3       30.65S
GRAND RAPIDS   FLURRIES  -3  -6  87 NW10      30.65S WCI -20
CRANE LAKE     LGT SNOW   0  -2  92 NW3       30.66F
ORR            CLOUDY    -2  -8  78 NW6       30.60F WCI -14
COOK           CLOUDY     0  -4  85 W5        30.62S WCI -10
WALKER         CLOUDY    -9 -13  82 NW7       30.67S WCI -24
$$
MNZ012-019>021-037-161200-
   Northeast Minnesota

CITY           SKY/WX    TMP DP  RH WIND       PRES   REMARKS
DULUTH         FAIR      -2  -4  91 N14       30.56S WCI -21
ELY            CLOUDY    -2  -6  84 N3        30.59S
HIBBING        CLOUDY    -3  -5  90 NW13      30.61R WCI -22
EVELETH        CLOUDY    -2  -7  80 N5        30.61S WCI -12
DULUTH HARBOR  CLOUDY     5   0  78 W7        30.64S WCI  -7
TWO HARBORS    FAIR       3  -2  78 NW7       30.56R WCI  -9
SILVER BAY     FAIR      -2  -6  84 CALM      30.55S
GRAND MARAIS     N/A      7  -1  70 N17G31    30.56S WCI -12
G MARAIS ARPRT FAIR      -2  -8  78 NW9       30.48S WCI -18
$$
MNZ029>031-032-039>041-046>048-054>057-064-161200-
   West Central Minnesota

CITY           SKY/WX    TMP DP  RH WIND       PRES   REMARKS
FERGUS FALLS   MOCLDY   -11 -18  70 NW8       30.80S WCI -28
WHEATON        CLOUDY   -11 -17  77 NW10      30.80S WCI -30
MORRIS         CLOUDY    -9 -15  77 NW14      30.73R WCI -31
ALEXANDRIA     CLOUDY   -11 -15  82 NW10      30.67F WCI -30
ELBOW LAKE     CLOUDY   -11 -15  82 W13       30.74S WCI -32
WADENA         FAIR     -15 -18  84 W7        30.68S WCI -31
GLENWOOD       FAIR     -11 -15  84 NW10      30.68S WCI -30
APPLETON       CLOUDY    -6 -11  77 N12       30.76F WCI -24
BENSON         CLOUDY    -9 -15  77 N14       30.74S WCI -31
ORTONVILLE     CLOUDY    -9 -15  77 NW12      30.76S WCI -29
MADISON        CLOUDY    -4  -9  77 NW13      30.76F WCI -23
WILLMAR        CLOUDY    -9 -15  77 NW16      30.72S WCI -32
$$
MNZ033>034-036-042>043-049>051-058-059-161200-
   Central Minnesota

CITY           SKY/WX    TMP DP  RH WIND       PRES   REMARKS
ST CLOUD       FAIR      -4  -7  87 NW9       30.65S WCI -20
SAUK CENTRE      N/A     -8 -12  81 NW12      30.67F WCI -27
PAYNESVILLE    FAIR      -8 -12  83 NW9       30.68S WCI -26
AITKIN         CLOUDY    -4  -8  84 NW6       30.63S WCI -16
PINE RIVER     FAIR      -8 -11  84 NW5       30.67S WCI -19
BRAINERD       FAIR      -6 -11  79 NW7       30.65S WCI -20
STAPLES        CLOUDY    -6  -9  84 W9        30.67R WCI -22
LONG PRAIRIE   CLOUDY    -6  -9  84 W8        30.66S WCI -21
LITTLE FALLS   FAIR      -4 -13  65 NW5       30.67S WCI -15
LITCHFIELD     FAIR      -8 -11  84 NW10G17   30.68R WCI -26
BUFFALO        MOCLDY    -2  -6  83 NW9       30.67R WCI -18
MAPLE LAKE     FAIR      -2  -5  87 MISG      30.66S
HUTCHINSON     CLOUDY    -7 -12  79 W9        30.67S WCI -24
$$
MNZ037-044-045-052-053-161200-
   East Central Minnesota

CITY           SKY/WX    TMP DP  RH WIND       PRES   REMARKS
PRINCETON      FAIR      -4  -8  84 W6        30.64R WCI -16
MORA           FAIR       0  -6  78 N3        30.64R
CAMBRIDGE        N/A      0  -8  71 NW5       30.64S WCI -10
RUSH CITY      MOCLDY     0  -4  82 N6        30.63S WCI -11
MOOSE LAKE     FAIR       0  -4  85 CALM      30.60S
HINCKLEY       FAIR       1  -4  78 N6        30.62S WCI -10
CLOQUET        FAIR       0  -6  78 NW14      30.58S WCI -19
MCGREGOR       CLOUDY     0  -4  85 N9        30.63S WCI -16
$$
MNZ071>073-080-081-089-090-097-098-161200-
   Southwest Minnesota

CITY           SKY/WX    TMP DP  RH WIND       PRES   REMARKS
MONTEVIDEO     CLOUDY   N/A N/A N/A N12         N/A
GRANITE FALLS  CLOUDY    -8 -13  77 NW14      30.77S WCI -28
CANBY          CLOUDY    -5 -10  81 W14       30.76S WCI -25
MARSHALL       CLOUDY    -8 -13  78 NW15      30.73S WCI -30
REDWOOD FALLS  FLURRIES  -9 -14  78 NW12G22   30.72S WCI -28
OLIVIA         MOCLDY    -6 -11  77 NW15G24   30.70F WCI -27
PIPESTONE      CLOUDY    -6  -9  84 N8        30.65S WCI -21
WINDOM         LGT SNOW  -8 -20  54 NW17G24   30.66R WCI -31
WORTHINGTON    CLOUDY    -9 -14  78 N21       30.66S WCI -34
JACKSON        LGT SNOW  -8 -13  77 NW20G28   30.63S WCI -32
SLAYTON        CLOUDY    -9 -14  79 N17       30.66S WCI -32
$$
MNZ065>067-074>077-082>085-091>093-161200-
   South Central Minnesota

CITY           SKY/WX    TMP DP  RH WIND       PRES   REMARKS
MANKATO        FLURRIES  -6 -10  83 NW16      30.66R WCI -28
NEW ULM        CLOUDY    -8 -15  71 NW17      30.69R WCI -31
ST JAMES       LGT SNOW  -8 -11  84 NW17G23   30.69R WCI -31
FAIRMONT       LGT SNOW  -6 -11  79 NW22      30.65R WCI -31
FARIBAULT      CLOUDY     0  -6  78 NW7       30.62R WCI -13
OWATONNA       CLOUDY    -2  -8  78 W12       30.60R WCI -20
WASECA         CLOUDY    -2  -8  78 NW18      30.64S HAZE    WCI -24
ALBERT LEA     CLOUDY    -6 -11  77 NW10G17   30.58S HAZE    WCI -23
$$
MNZ078>079-086>088-094>096-161200-
   Southeast Minnesota

CITY           SKY/WX    TMP DP  RH WIND       PRES   REMARKS
ROCHESTER      FLURRIES   2  -1  88 NW18      30.53S WCI -19
RED WING       CLOUDY     0  -6  78 W9        30.60S WCI -16
STANTON        CLOUDY     2  -3  79 NW10      30.61S WCI -13
DODGE CENTER   CLOUDY     0  -6  78 NW16      30.55R FOG     WCI -21
WINONA         CLOUDY    10   5  79 NW9         N/A  WCI  -2
PRESTON        CLOUDY     3  -2  81 NW12      30.52R WCI -14
$$
ABBREVIATIONS USED IN REMARKS
   TC - TEMPERATURES IN CELSIUS
  WCI - WIND CHILL INDEX
   HX - HEAT INDEX
  VSB - VISIBILITY
$$




USA.gov is the U.S. government's official web portal to all federal, state and local government web resources and services.